Tracking 19969 objects as of 13-Nov-2019
Live streaming from Space Station
objects crossing your sky now
Track the group of recently launched Starlink satellites

NOAA 16 DEB

Track NOAA 16 DEB now!
10-day predictions


NORAD ID: 42422
Int'l Code: 2000-055TS
Perigee: 840.3 km
Apogee: 861.9 km
Inclination: 98.9 °
Period: 101.8 minutes
Semi major axis: 7222 km
RCS: Unknown
Launch date: September 21, 2000
Source: United States (US)
Launch site: AIR FORCE WESTERN TEST RANGE (AFWTR)

Note: This is SATELLITE DEBRIS
aabbcc
Your satellite tracking list
Your tracking list is empty




NASA's NSSDC Master Catalog

Two Line Element Set (TLE):
1 42422U 00055TS  19317.47693628  .00000595  00000-0  33312-3 0  9994
2 42422  98.8553  35.7207 0014955  21.5396 338.6403 14.14512754185115
Source of the keplerian elements: AFSPC